Tracking 23645 objects as of 21-Sep-2021
HD Live streaming from Space Station
objects crossing your sky now

UFO 1 (USA 98)

Track UFO 1 (USA 98) now!
UFO 1 (USA 98) is classified as:


NORAD ID: 22563
Int'l Code: 1993-015A
Perigee: 36,074.3 km
Apogee: 36,091.2 km
Inclination: 21.6 °
Period: 1,450.9 minutes
Semi major axis: 42453 km
RCS: 8.2516 m2 (large)
Launch date: March 25, 1993
Source: United States (US)
Launch site: AIR FORCE EASTERN TEST RANGE (AFETR)
aabbcc
Your satellite tracking list
Your tracking list is empty




NASA's NSSDC Master Catalog

Two Line Element Set (TLE):
1 22563U 93015A   21262.63591153  .00000098  00000-0  00000-0 0  9999
2 22563  21.6385 100.4940 0001994 211.9160 329.3446  0.99249538107510
Source of the keplerian elements: AFSPC